Location: Newark
(13.8117°N, 3.6025°W)
Time: 07:40:35
(UTC+00:00)

Explorer 11/Cluster Stage 4 - Pass Details

Date: 03 September 2019
Orbit: 467 x 1260 km, 28.8° (Epoch: 21 September)

Event Time Altitude Azimuth Distance (km) Brightness Sun altitude
Rises 03:56:01 0° 246° (WSW) 2,582 - -30.9°
Reaches altitude 10° 03:58:05 10° 248° (WSW) 1,761 - -30.4°
Maximum altitude 04:02:05 75° 334° (NNW) 613 - -29.5°
Exits shadow 04:03:31 43° 50° (NE) 874 7.1 -29.1°
Drops below altitude 10° 04:07:00 10° 60° (ENE) 2,147 9.7 -28.3°
Sets 04:09:44 0° 62° (ENE) 3,208 10.9 -27.7°
